Regional Weather Roundup
Issued by NWS

Home | Current Version | Previous Version | Text Only | Print | Product List | Glossary On
Versions: 1 2 3 4 5 6 7 8 9 10 11 12 13 14 15 16 17 18 19 20 21 22 23 24 25 26 27 28 29 30 31 32 33 34 35 36 37 38 39 40 41 42 43 44 45 46 47 48 49 50
000
ASUS45 KBOU 060707
RWRCO

WEATHER ROUNDUP FOR COLORADO
NATIONAL WEATHER SERVICE DENVER/BOULDER CO
100 AM MDT FRI MAY 06 2016

NOTE: "FAIR" INDICATES FEW OR NO CLOUDS BELOW 12000 FEET WITH NO
SIGNIFICANT WEATHER AND/OR OBSTRUCTIONS TO VISIBILITY.

COZ001>005-013-030-031-060800-
...NORTHWEST COLORADO...

CITY           SKY/WX    TMP DP  RH WIND       PRES   REMARKS
CRAIG          FAIR      47  35  63 SE3       29.99F
HAYDEN         FAIR      54  28  37 E10       30.01F
MEEKER         FAIR      52  30  43 CALM      30.01R
MOUNT WERNER   NOT AVBL
STEAMBOAT SPGS FAIR      50  32  50 CALM      30.04F
WALDEN         MOCLDY    43  32  65 SE5       30.16F
$$

COZ006>008-011-060800-
...WEST CENTRAL VALLEYS...

CITY           SKY/WX    TMP DP  RH WIND       PRES   REMARKS
GRAND JUNCTION FAIR      67  34  29 VRB7      29.90R
MONTROSE       FAIR      60  31  33 SE8       29.98S
EAGLE          FAIR      54  28  37 CALM      30.06R
RIFLE          FAIR      51  36  56 W9        29.95S
DELTA          NOT AVBL
NUCLA          NOT AVBL
$$

COZ017>023-064>068-060800-
...SOUTHWEST COLORADO...

CITY           SKY/WX    TMP DP  RH WIND       PRES   REMARKS
DURANGO        CLOUDY    62  28  27 E8        30.04S
CORTEZ         FAIR      65  34  31 E13       29.94F
PAGOSA SPRINGS FAIR      46  29  51 E3        30.15S
TELLURIDE      MOCLDY    56  23  28 S10G23    30.19F
WOLF CREEK PAS MOCLDY    37  21  52 SW15G25   30.39F
$$

COZ009-010-012-014-032>034-037-058>063-060800-
...CENTRAL COLORADO...

CITY           SKY/WX    TMP DP  RH WIND       PRES   REMARKS
ASPEN          FAIR      45  29  53 S7        30.10F
BUENA VISTA    FAIR      44  30  58 W6        30.18F
COPPER MTN     NOT AVBL
BERTHOUD PASS  FAIR      34  25  69 SE24G33   30.43F WCI  21
COTTONWOOD PAS FAIR      52  23  32 CALM      30.28F
GUNNISON       FAIR      46  28  49 N10       30.16S
KREMMLING      FAIR      45  30  57 CALM      30.13S
LEADVILLE      FAIR      41  23  48 CALM      30.26S
MONARCH PASS   FAIR      41  21  45 S13       30.49F
SALIDA         FAIR      50  29  44 W6        30.23S
SUNLIGHT       FAIR      45  25  45 CALM      30.30F
WILKERSON PASS FAIR      41  28  60 S13G20    30.38F
$$

COZ069>075-060800-
...SAN LUIS VALLEY/SANGRE DE CRISTO MOUNTAINS...

CITY           SKY/WX    TMP DP  RH WIND       PRES   REMARKS
ALAMOSA        FAIR      49  31  49 S8        30.15S
LA VETA PASS   FAIR      46  23  39 S12G22    30.30F
SAGUACHE       FAIR      43  32  65 N5        30.17S
$$

COZ035-036-038>040-060800-
...NORTHERN COLORADO FRONT RANGE...

CITY           SKY/WX    TMP DP  RH WIND       PRES   REMARKS
DENVER INTL AP FAIR      55  39  54 SW12      30.03F
DMNS CITY PARK   N/A     64  37  37 SE13      30.01S
AURORA         FAIR      57  41  55 S7        30.05F
FRONT RANGE AP NOT AVBL
ERIE MUNI ARPT FAIR      53  41  64 CALM      30.00F
BOULDER MUN AP FAIR      59  34  38 CALM      30.01S
CENTENNIAL     FAIR      56  38  50 W3        30.05F
BROOMFIELD     FAIR      55  37  50 SW5       30.03F
FORT COLLINS   FAIR      55  41  58 S5        30.01F
LONGMONT       FAIR      51  42  72 W5        30.02F
$$

COZ041-046-047-076>085-087-088-060800-
...PIKES PEAK/PALMER DIVIDE AND SOUTHERN FOOTHILLS...

CITY           SKY/WX    TMP DP  RH WIND       PRES   REMARKS
COLO. SPRINGS  FAIR      53  38  56 NE8       30.09F
A. F. ACADEMY  FAIR      48  37  66 N2        30.09F
SCHRIEVER AFB  NOT AVBL
ELLICOTT       FAIR     N/A N/A N/A SE14      30.07F
FALCON         NOT AVBL
FORT CARSON    FAIR      54  40  59 N8        30.05F
LIMON          FAIR      48  42  80 SE6       30.07F
MONUMENT HILL  FAIR      46  37  71 S13       30.13F
TRINIDAD       FAIR      63  22  20 W17G24    30.04F
$$

COZ042>045-048>051-090-091-060800-
...NORTHEAST COLORADO...

CITY           SKY/WX    TMP DP  RH WIND       PRES   REMARKS
GREELEY ARPT   FAIR      55  43  62 SE6       30.01F
AKRON          FAIR      58  43  57 S17       30.03F
BURLINGTON     FAIR      57  45  64 S16       30.05F
WRAY           NOT AVBL
STERLING       FAIR      59  45  58 S12       29.99S
HOLYOKE        NOT AVBL
FORT MORGAN    FAIR      58  42  55 SE9       30.02S
$$

COZ086-089-092>099-060800-
...SOUTHEAST COLORADO...

CITY           SKY/WX    TMP DP  RH WIND       PRES   REMARKS
PUEBLO         FAIR      56  43  61 N8        29.98F
LA JUNTA       FAIR      56  45  66 E8        29.98F
LAMAR          FAIR      57  46  66 VRB3      29.98F
SPRINGFIELD      N/A     56  43  61 S17       30.04S
$$



USA.gov is the U.S. government's official web portal to all federal, state and local government web resources and services.